Regional Weather Roundup
Issued by NWS

Home | Current Version | Previous Version | Graphics & Text | Print | Product List | Glossary Off
Versions: 1 2 3 4 5 6 7 8 9 10 11 12 13 14 15 16 17 18 19 20 21 22 23 24 25 26 27 28

000
ASUS45 KBOI 301210
RWRID

IDAHO REGIONAL WEATHER ROUNDUP
NATIONAL WEATHER SERVICE BOISE ID
600 AM MDT TUE MAY 30 2017

NOTE: "FAIR" INDICATES FEW OR NO CLOUDS BELOW 12000 FEET
WITH NO SIGNIFICANT WEATHER AND/OR OBSTRUCTIONS TO VISIBILITY

IDZ012-014-301300-
SOUTHWEST IDAHO


CITY           SKY/WX    TMP DP  RH WIND       PRES   REMARKS
BOISE          CLEAR     62  43  49 CALM      29.97R
CALDWELL       CLEAR     56  44  64 E6        29.96S
MOUNTAIN HOME  CLEAR     52  44  75 E7        29.98S
$$

IDZ016-017-301300-
SOUTHCENTRAL IDAHO


CITY           SKY/WX    TMP DP  RH WIND       PRES   REMARKS
BURLEY         CLEAR     48  43  82 CALM      30.06S
JEROME         CLEAR     57  40  52 NE17      30.05S
TWIN FALLS     CLEAR     47  42  83 E6        30.05S
$$

IDZ019>023-301300-
SOUTHEAST IDAHO


CITY           SKY/WX    TMP DP  RH WIND       PRES   REMARKS
IDAHO FALLS    CLEAR     42  40  92 NW6       30.13S
POCATELLO      CLEAR     43  38  82 CALM      30.11R
REXBURG        CLEAR     44  38  79 NE5       30.14S
$$

IDZ006-010-011-018-031-032-301300-
CENTRAL IDAHO MOUNTAINS


CITY           SKY/WX    TMP DP  RH WIND       PRES   REMARKS
MCCALL         CLEAR     43  36  76 CALM      30.10S
HAILEY         CLEAR     46  39  76 NW16      30.18S
STANLEY          N/A     35  32  88 CALM      30.25S
SALMON         CLEAR     45  39  81 CALM      30.11S
CHALLIS        CLEAR     48  39  71 CALM      30.16S
$$

IDZ002-004-006-007-026-301300-
NORTHERN IDAHO


CITY           SKY/WX    TMP DP  RH WIND       PRES   REMARKS
LEWISTON       CLEAR     57  48  72 SE6       29.93R
LOWELL           N/A     50  46  86 N3        30.03R
COEUR D`ALENE  CLEAR     58  48  69 E8        29.97S
MULLAN PASS    CLEAR     55  33  43 SE9       30.14S
$$




USA.gov is the U.S. government's official web portal to all federal, state and local government web resources and services.